Regional Weather Roundup
Issued by NWS

Home | Current Version | Previous Version | Text Only | Print | Product List | Glossary Off
Versions: 1 2 3 4 5 6 7 8 9 10 11 12 13 14 15 16 17 18 19 20 21 22 23 24 25 26 27 28 29 30 31 32 33 34 35 36 37 38 39 40 41 42 43 44 45 46 47 48 49 50

000
ASUS43 KMKX 211759
RWRWI

WISCONSIN REGIONAL WEATHER ROUNDUP
NATIONAL WEATHER SERVICE MILWAUKEE/SULLIVAN WI
1200 PM CST SAT JAN 21 2017

NOTE: "FAIR" INDICATES FEW OR NO CLOUDS BELOW 12,000 FEET WITH NO
SIGNIFICANT WEATHER AND/OR OBSTRUCTIONS TO VISIBILITY.

WIZ001-002-006>008-014>016-023>028-211900-
NORTHWEST WISCONSIN

CITY           SKY/WX    TMP DP  RH WIND       PRES   REMARKS
SUPERIOR ARPT  DRIZZLE   35  35 100 E6        29.49F WCI  30
ASHLAND        CLOUDY    36  34  92 NE7       29.49F WCI  30
6HR MIN TEMP:  34; 6HR MAX TEMP:  36; 6HR PCP:  0.01;

HAYWARD        LGT RAIN  38  35  89 E7        29.43F WCI  33
6HR MIN TEMP:  34; 6HR MAX TEMP:  38; 6HR PCP: TRACE;

SIREN          DRIZZLE   36  36  99 NE5       29.43F WCI  32
CUMBERLAND     CLOUDY    34  34 100 E6        29.41F WCI  29
RICE LAKE      RAIN      37  36  98 E6        29.43F WCI  32
CHETEK         CLOUDY    36  36  99 E6        29.42F FOG     WCI  31
LADYSMITH      RAIN      37  37  99 E7        29.45F WCI  31
EAU CLAIRE     NOT AVBL
MENOMONIE        N/A    N/A N/A N/A MISG        N/A
NEW RICHMOND   DRIZZLE   35  35 100 E5        29.42F WCI  31
OSCEOLA        DRIZZLE   37  37 100 CALM      29.45F
$$

WIZ003>005-009-010-017-018-211900-
NORTH CENTRAL WISCONSIN

CITY           SKY/WX    TMP DP  RH WIND       PRES   REMARKS
MANITOWISH WTR LGT RAIN  34  34 100 CALM      29.46F
ARBOR VITAE    CLOUDY    37  36  96 SE8       29.45F FOG     WCI  30
WOODRUFF       CLOUDY    37  36  96 SE8       29.45F FOG     WCI  30
RHINELANDER    FOG       36  35  96 E13       29.46F VSB 1/2 WCI  27
6HR MIN TEMP:  34; 6HR MAX TEMP:  36; 6HR PCP:  0.01;

EAGLE RIVER    CLOUDY    34  34 100 E8        29.47F WCI  28
LAND O LAKES   MIX PCPN  35  34  98 E8        29.49F WCI  28
PHILLIPS       CLOUDY    35  35 100 SE5       29.44F WCI  31
6HR MIN TEMP:  32; 6HR MAX TEMP:  35; 6HR PCP:  0.09;

TOMAHAWK       CLOUDY    36  35  96 CALM      29.45F FOG
MEDFORD        HVY RAIN  34  34  99 SE5       29.43S VSB 1/2 WCI  30
MERRILL        DRZL/FOG  36  36 100 SE6         N/A  VSB 1/2 WCI  31
6HR MIN TEMP:  33; 6HR MAX TEMP:  36;

$$

WIZ029-030-035-036-043>047-211900-
CENTRAL WISCONSIN

CITY           SKY/WX    TMP DP  RH WIND       PRES   REMARKS
WAUSAU         FOG       35  35 100 E10       29.42F VSB 1/2 WCI  27
6HR MIN TEMP:  33; 6HR MAX TEMP:  35; 6HR PCP: TRACE;

MOSINEE        FOG       36  36 100 E12       29.44F VSB 1/8 WCI  27
MARSHFIELD     FOG       35  35 100 E9        29.41F VSB 1/4 WCI  28
6HR MIN TEMP:  33; 6HR MAX TEMP:  35; 6HR PCP:  0.01;

STEVENS POINT  LGT RAIN  33  33 100 E12       29.45F VSB 1/4 WCI  25
WAUPACA        FOG       38  38  97 CALM      29.48F VSB 1/4
WAUTOMA        FOG       37  37 100 NE3       29.45F VSB 1/4
6HR MIN TEMP:  34; 6HR MAX TEMP:  37;

WISC RAPIDS    FOG       37  37 100 E6        29.44F VSB 1/4 WCI  32
6HR MIN TEMP:  34; 6HR MAX TEMP:  37; 6HR PCP: TRACE;

CAMP DOUGLAS   NOT AVBL
$$

WIZ011>013-019>022-031-037>040-048>050-211900-
NORTHEAST WISCONSIN

CITY           SKY/WX    TMP DP  RH WIND       PRES   REMARKS
ANTIGO         FOG       33  33 100 E8        29.47F VSB 1/4 WCI  26
SHAWANO        FOG       36  35  95 NE8       29.49F VSB 1/4 WCI  30
OCONTO         CLOUDY    35  35  99 NE6       29.52F VSB 1/4 WCI  30
STURGEON BAY   LGT RAIN  39  38  96 E7        29.51F VSB 1/4 WCI  34
6HR MIN TEMP:  35; 6HR MAX TEMP:  39; 6HR PCP: TRACE;

GREEN BAY      FOG       37  37 100 NE5       29.49F VSB 1/4 WCI  33
6HR MIN TEMP:  36; 6HR MAX TEMP:  37;

MANITOWOC      NOT AVBL
APPLETON       FOG       37  37 100 E7        29.86R VSB 1/8 WCI  32
CLINTONVILLE   FOG       36  36 100 NE5       29.48F VSB 1/4 WCI  32
OSHKOSH        FOG       37  36  96 NE3       29.44F VSB 1/4
6HR MIN TEMP:  35; 6HR MAX TEMP:  37;

$$

WIZ032>034-041-042-053>061-211900-
SOUTHWEST WISCONSIN

CITY           SKY/WX    TMP DP  RH WIND       PRES   REMARKS
LA CROSSE      CLOUDY    40  37  89 SE7       29.41F FOG
6HR MIN TEMP:  39; 6HR MAX TEMP:  41; 6HR PCP:  0.06;

SPARTA         CLOUDY    37  37 100 CALM      29.44S FOG
VIROQUA        CLOUDY    38  38 100 SE7       29.41F VSB<1/4 WCI  33
6HR MIN TEMP:  35; 6HR MAX TEMP:  38;

BOSCOBEL       FOG       41  40  96 CALM      29.43F VSB 1/4
6HR MIN TEMP:  37; 6HR MAX TEMP:  41;

PRAIRIE DU CHI FOG       40  39  97 CALM      29.43F VSB 1
PLATTEVILLE    CLOUDY    42  42 100 SW6       29.44S VSB<1/4
$$

WIZ056-057-062-063-064-067-068-211900-
SOUTH CENTRAL WISCONSIN

CITY           SKY/WX    TMP DP  RH WIND       PRES   REMARKS
REEDSBURG      FOG       38  38 100 CALM      29.42F VSB 1/2
BARABOO/DELLS  FOG       39  38  99 CALM      29.43F VSB<1/4
LONE ROCK      FOG       41  41 100 CALM      29.43F VSB 1/4
MINERAL POINT  FOG       45  45 100 S3        29.42F VSB<1/4
MADISON        FOG       45  45 100 S5        29.43F VSB 1
6HR MIN TEMP:  38; 6HR MAX TEMP:  45; 6HR PCP: TRACE;

MIDDLETON      CLOUDY    46  46 100 S3        29.44F VSB 3/4
WATERTOWN      CLOUDY    46  46 100 S9        29.45F FOG
MONROE         CLOUDY    45  45 100 S14       29.43F FOG
JANESVILLE     PTSUNNY   50  50 100 S9        29.43F
$$

WIZ051-052-058>065-066-070>072-211900-
SOUTHEAST WISCONSIN

CITY           SKY/WX    TMP DP  RH WIND       PRES   REMARKS
MILWAUKEE      CLOUDY    49  45  86 SE7       29.47F FOG
6HR MIN TEMP:  40; 6HR MAX TEMP:  50;

WAUKESHA       CLOUDY    45  45 100 SE7       29.46F FOG
MILWAUKEE/TIMM CLOUDY    48  46  93 S7        29.48F FOG
RACINE         FOG       44  43  96 S9        29.48F VSB<1/4
6HR MIN TEMP:  41; 6HR MAX TEMP:  45;

KENOSHA        MOSUNNY   50  48  93 SE6       29.46F FOG
6HR MIN TEMP:  42; 6HR MAX TEMP:  51;

FOND DU LAC    CLOUDY    42  39  89 SE5       29.44F FOG
6HR MIN TEMP:  37; 6HR MAX TEMP:  42;

SHEBOYGAN      FOG       42  40  92 SE6       29.47F VSB<1/4
6HR MIN TEMP:  35; 6HR MAX TEMP:  42; 6HR PCP: TRACE;

WEST BEND      CLOUDY    45  45 100 S5        29.46F FOG
JUNEAU         FOG       44  44 100 SE6       29.46F VSB 1/2
$$

LSZ147-162-211900-
LAKE SUPERIOR

STATION/POSITION TIME  TEMP    WIND        PRES    WAVE
                       AIR SEA DIR/SP/G            HT/PER
                 (UTC) (F)     (DEG/KT/KT) (MB)    (FT/S)
DEVILS ISLAND    1700   35      60/  6/  6 1000.4F
PORT WING        1740   33      30/ 11/ 11  999.0F
SAXON HARBOR     1730   34      50/  5/  7  999.0F
$$

LMZ867-665-643>646-211900-
LAKE MICHIGAN

STATION/POSITION TIME  TEMP    WIND        PRES    WAVE
                       AIR SEA DIR/SP/G            HT/PER
                 (UTC) (F)     (DEG/KT/KT) (MB)    (FT/S)
NORTHPORT PIER   1740   35      90/  3/  6 1000.7F
SISTER BAY       1720   38     120/  8/ 12   N/A
KEWAUNEE LAKESHO 1730   39     130/  1/  3  999.2F
SHEBOYGAN LAKESH 1700   40     160/  6/  6  999.4F
PORT WASHINGTON  1740   39     170/  2/  4  999.7F
KENOSHA   LAKESH 1700   38     180/  9/ 13  999.7
$$

TC  - TEMPERATURE IN CELSIUS
VSB - VISIBILITY IN STATUTE MILES
WCI - WIND CHILL INDEX
HX  - HEAT INDEX




USA.gov is the U.S. government's official web portal to all federal, state and local government web resources and services.